Weather History for Greenville Downtown, SC

Change the Weather History Date:

Sunday, June 9, 2013

  Actual Average Record
Temperature  
Mean Temperature 76 °F -  
Max Temperature 86 °F 82 °F 98 °F (2008)
Min Temperature 69 °F 63 °F 57 °F (1997)
Cooling Degree Days 10    
Growing Degree Days 26 (Base 50)    
Moisture  
Dew Point 68 °F    
Average Humidity 85    
Maximum Humidity 94    
Minimum Humidity 56    
Precipitation  
Precipitation 1.25 in - - ()
Sea Level Pressure  
Sea Level Pressure 30.10 in    
Wind  
Wind Speed 4 mph (SE)    
Max Wind Speed 24 mph    
Max Gust Speed 31 mph    
Visibility 7 miles    
Events Fog , Rain , Thunderstorm    
Averages and records for this station are not official NWS values.
T = Trace of Precipitation, MM = Missing Value Source: NWS Daily Summary

Daily Weather History Graph

Daily Weather History Graph

Search for Another Location

Airport:

Trip Planner

Search our weather history database for the weather conditions in past years. The results will help you decide how hot, cold, wet, or windy it might be!

Date:

Astronomy

Jun. 09, 2013 Rise Set
Actual Time 6:15 AM EDT 8:42 PM EDT
Civil Twilight 5:45 AM EDT 9:11 PM EDT
Nautical Twilight 5:09 AM EDT 9:48 PM EDT
Astronomical Twilight 4:29 AM EDT 10:28 PM EDT
Moon 7:08 AM EDT (6/9) 9:30 PM EDT (6/9)
Length of Visible Light 15h 25m
Length of Day
14h 26m
New Moon, 1% of the Moon is Illuminated
Jun 9
New Moon
Jun 16
First Quarter
Jun 23
Full
Jun 30
Last Quarter
Jul 8
New

Hourly Weather History & Observations

Time (EDT) Temp. Heat Index Dew Point Humidity Pressure Visibility Wind Dir Wind Speed Gust Speed Precip Events Conditions
12:53 AM 73.0 °F - 66.0 °F 79% 30.10 in 10.0 mi Calm Calm - N/A   Clear
1:53 AM 72.0 °F - 66.9 °F 84% 30.09 in 10.0 mi Calm Calm - N/A   Clear
2:53 AM 71.1 °F - 66.0 °F 84% 30.09 in 9.0 mi Calm Calm - N/A   Clear
3:53 AM 71.1 °F - 66.0 °F 84% 30.08 in 9.0 mi Calm Calm - N/A   Clear
4:53 AM 72.0 °F - 66.0 °F 81% 30.09 in 9.0 mi Calm Calm - N/A   Clear
5:53 AM 70.0 °F - 66.0 °F 87% 30.11 in 9.0 mi Calm Calm - N/A   Clear
6:53 AM 70.0 °F - 66.0 °F 87% 30.12 in 7.0 mi Calm Calm - N/A   Clear
7:53 AM 73.0 °F - 66.9 °F 81% 30.13 in 8.0 mi Calm Calm - N/A   Mostly Cloudy
8:53 AM 75.0 °F - 68.0 °F 79% 30.15 in 9.0 mi Calm Calm - N/A   Scattered Clouds
9:53 AM 79.0 °F - 68.0 °F 69% 30.14 in 10.0 mi Variable 3.5 mph - N/A   Overcast
10:53 AM 81.0 °F 83.8 °F 68.0 °F 65% 30.12 in 10.0 mi SSE 3.5 mph - N/A   Partly Cloudy
11:37 AM 80.6 °F 83.2 °F 68.0 °F 65% 30.16 in 10.0 mi SE 8.1 mph - N/A   Mostly Cloudy
11:53 AM 82.0 °F 84.9 °F 68.0 °F 62% 30.12 in 10.0 mi Variable 4.6 mph - N/A   Mostly Cloudy
12:53 PM 82.9 °F 85.8 °F 68.0 °F 60% 30.09 in 10.0 mi SE 4.6 mph - N/A   Mostly Cloudy
1:53 PM 82.9 °F 85.0 °F 66.0 °F 56% 30.06 in 10.0 mi South 3.5 mph - N/A   Mostly Cloudy
2:14 PM 71.6 °F - 68.0 °F 88% 30.10 in 1.5 mi West 24.2 mph 31.1 mph 0.10 in Rain Heavy Rain
2:23 PM 69.8 °F - 66.2 °F 88% 30.09 in 0.5 mi NE 11.5 mph 18.4 mph 0.35 in Fog , Rain Heavy Rain
2:31 PM 73.4 °F - 66.2 °F 78% 30.08 in 2.0 mi NNE 9.2 mph - 0.37 in Rain Light Rain
2:38 PM 73.4 °F - 66.2 °F 78% 30.09 in 10.0 mi SE 5.8 mph - 0.37 in   Mostly Cloudy
2:53 PM 72.0 °F - 68.0 °F 87% 30.09 in 3.0 mi SSE 8.1 mph - 0.43 in Rain Rain
2:57 PM 71.6 °F - 66.2 °F 83% 30.12 in 1.8 mi SE 10.4 mph - 0.04 in Rain Heavy Rain
3:03 PM 71.6 °F - 68.0 °F 88% 30.12 in 1.0 mi SSE 12.7 mph 19.6 mph 0.21 in Rain , Thunderstorm Heavy Thunderstorms and Rain
3:08 PM 69.8 °F - 68.0 °F 94% 30.11 in 0.8 mi East 11.5 mph - 0.33 in Rain , Thunderstorm Heavy Thunderstorms and Rain
3:11 PM 69.8 °F - 68.0 °F 94% 30.12 in 1.0 mi ESE 10.4 mph - 0.36 in Rain , Thunderstorm Heavy Thunderstorms and Rain
3:21 PM 71.6 °F - 69.8 °F 94% 30.12 in 3.0 mi East 5.8 mph - 0.40 in Rain , Thunderstorm Heavy Rain
3:53 PM 72.0 °F - 69.1 °F 91% 30.10 in 7.0 mi East 8.1 mph - 0.48 in Rain Light Rain
4:18 PM 71.6 °F - 68.0 °F 88% 30.13 in 10.0 mi SSE 3.5 mph - 0.01 in Rain Light Rain
4:33 PM 71.6 °F - 69.8 °F 94% 30.12 in 6.0 mi SSE 6.9 mph - 0.03 in Rain Rain
4:53 PM 72.0 °F - 68.0 °F 87% 30.09 in 8.0 mi SE 5.8 mph - 0.06 in Rain Light Rain
5:53 PM 73.0 °F - 70.0 °F 90% 30.07 in 10.0 mi SSE 9.2 mph - 0.01 in   Scattered Clouds
6:53 PM 72.0 °F - 68.0 °F 87% 30.07 in 10.0 mi SE 5.8 mph - N/A   Overcast
7:53 PM 72.0 °F - 69.1 °F 91% 30.08 in 3.0 mi SSE 8.1 mph - 0.04 in Rain Rain
8:20 PM 71.6 °F - 68.0 °F 88% 30.10 in 10.0 mi SE 8.1 mph - 0.02 in Rain Light Rain
8:53 PM 71.1 °F - 68.0 °F 90% 30.08 in 10.0 mi SSE 5.8 mph - 0.02 in Rain Light Rain
9:06 PM 71.6 °F - 68.0 °F 88% 30.11 in 10.0 mi South 8.1 mph - 0.01 in Rain Light Rain
9:18 PM 69.8 °F - 68.0 °F 94% 30.11 in 8.0 mi SSE 5.8 mph - 0.03 in Rain Rain
9:53 PM 71.1 °F - 68.0 °F 90% 30.08 in 10.0 mi South 6.9 mph - 0.04 in Rain Light Rain
10:51 PM 69.8 °F - 68.0 °F 94% 30.11 in 10.0 mi SSE 5.8 mph - 0.02 in Rain Light Rain
10:53 PM 70.0 °F - 68.0 °F 93% 30.08 in 10.0 mi SSE 5.8 mph - 0.02 in Rain Light Rain
11:16 PM 69.8 °F - 68.0 °F 94% 30.10 in 10.0 mi SSE 5.8 mph - 0.00 in   Overcast
11:51 PM 69.8 °F - 68.0 °F 94% 30.10 in 1.8 mi SE 12.7 mph - 0.14 in Rain Heavy Rain
11:53 PM 70.0 °F - 68.0 °F 93% 30.06 in 1.8 mi SSE 15.0 mph - 0.15 in Rain Heavy Rain
11:58 PM 69.8 °F - 68.0 °F 94% 30.09 in 3.0 mi SE 11.5 mph - 0.01 in Rain Light Rain